This demonstration page uses our WeatherBlox Daily Observations layout. Learn more.

Left ArrowRight Arrow

44.31136, -96.79839

Hourly Observations for August 4, 2017

Temp ( °F °C ) Dew Point ( °F °C ) Humidity (%) Winds ( mph kmh ) Pressure ( in mb ) Visibility ( mi km ) Precip ( " mm )
12:56 am 00:56 Clear 53 11.7 51 10.6 93 93 Calm 30.18 1022 N/A 0.00 0.00
1:56 am 01:56 Clear 52 11.1 50 10 93 93 WSW 3 6 30.18 1022 N/A 0.00 0.00
2:56 am 02:56 Clear 50 10 48 8.9 93 93 WSW 3 6 30.18 1022 N/A 0.00 0.00
3:56 am 03:56 Clear 50 10 47 8.3 89 89 Calm 30.18 1022 N/A 0.00 0.00
4:56 am 04:56 Clear 50 10 47 8.3 89 89 Calm 30.17 1022 N/A 0.00 0.00
5:56 am 05:56 Clear 49 9.4 46 7.8 90 90 Calm 30.17 1022 N/A 0.00 0.00
6:56 am 06:56 Sunny 49 9.4 46 7.8 90 90 Calm 30.18 1022 N/A 0.00 0.00
7:56 am 07:56 Sunny 53 11.7 49 9.4 86 86 Calm 30.17 1022 N/A 0.00 0.00
8:56 am 08:56 Sunny 59 15 53 11.7 81 81 NNW 3 6 30.18 1022 N/A 0.00 0.00
9:56 am 09:56 Sunny 64 17.8 53 11.7 68 68 NW 5 7 30.17 1022 N/A 0.00 0.00
10:56 am 10:56 Sunny 67 19.4 50 10 55 55 NW 8 13 30.17 1022 N/A 0.00 0.00
11:56 am 11:56 Sunny 68 20 49 9.4 51 51 VRB 7 11 30.16 1021 N/A 0.00 0.00
12:56 pm 12:56 Sunny 71 21.7 48 8.9 44 44 SW 8 13 30.14 1021 N/A 0.00 0.00
1:56 pm 13:56 Mostly Sunny 72 22.2 48 8.9 43 43 SSW 6 9 30.13 1020 N/A 0.00 0.00
2:56 pm 14:56 Mostly Sunny 73 22.8 49 9.4 43 43 VRB 3 6 30.11 1020 N/A 0.00 0.00
3:56 pm 15:56 Mostly Cloudy 73 22.8 50 10 44 44 WSW 7 11 30.09 1019 N/A 0.00 0.00
4:56 pm 16:56 Sunny 74 23.3 48 8.9 40 40 VRB 6 9 30.07 1018 N/A 0.00 0.00
5:56 pm 17:56 Sunny 73 22.8 49 9.4 43 43 VRB 3 6 30.06 1018 N/A 0.00 0.00
6:56 pm 18:56 Sunny 73 22.8 50 10 44 44 W 5 7 30.05 1018 N/A 0.00 0.00
7:56 pm 19:56 Sunny 71 21.7 53 11.7 53 53 Calm 30.05 1018 N/A 0.00 0.00
8:56 pm 20:56 Mostly Clear 68 20 53 11.7 59 59 SW 3 6 30.05 1018 N/A 0.00 0.00
9:56 pm 21:56 Clear 66 18.9 53 11.7 63 63 Calm 30.06 1018 N/A 0.00 0.00
10:56 pm 22:56 Clear 62 16.7 53 11.7 73 73 Calm 30.06 1018 N/A 0.00 0.00
11:56 pm 23:56 Clear 61 16.1 53 11.7 75 75 Calm 30.06 1018 N/A 0.00 0.00

Powered by AerisWeather